Temperature
6 5 4 5 5 6 6 6 5 6 7 7 6 7 8 8 8 8 8 8 9 9 10 10 10 10 10 11 11 11 11 11 11 11 11 11 11 11 11 11 12 12 12 12
5 4 6 6 6 6 6 5 5 6 7 7 6 6 7 7 7 8 8 8 8 9 9 10 10 10 10 10 10 10 10 10 10 10 10 10 11 11 11 11 11 11 11 11
5 6 7 7 7 6 6 5 5 5 6 5 5 5 6 7 8 8 8 8 8 9 9 9 9 9 9 9 10 10 10 10 10 10 10 10 10 10 10 11 10 11 11 11
5 6 7 7 6 6 5 6 6 6 4 3 4 4 5 5 6 7 7 8 8 8 9 9 9 9 9 9 9 9 9 9 9 9 9 9 9 9 10 10 10 10 10 11
5 6 6 6 7 7 6 6 6 5 4 3 3 3 4 5 5 6 6 7 8 8 8 8 8 8 8 8 8 9 9 9 9 9 9 9 9 9 9 10 10 10 10 10
5 6 6 6 7 7 6 5 4 3 2 2 3 3 3 4 5 6 6 7 8 8 8 8 8 8 8 8 8 8 8 8 8 8 9 9 9 9 9 9 9 9 9 10
4 5 6 7 6 6 5 3 2 1 1 2 4 3 4 5 5 6 6 7 8 8 8 8 7 7 7 8 8 8 8 8 8 8 8 8 8 8 9 9 9 9 9 9
3 4 5 6 6 5 4 3 2 2 1 2 3 3 4 5 5 6 7 7 7 7 7 7 7 7 7 7 7 7 7 7 8 8 8 8 8 8 8 9 9 9 9 9
3 3 5 6 6 5 4 3 3 2 1 1 2 2 3 5 5 5 6 6 6 7 7 7 7 7 6 6 6 7 7 7 7 7 8 8 8 8 8 8 9 9 9 9
3 3 4 5 5 5 4 3 1 1 1 2 2 2 3 4 5 5 5 5 6 6 6 6 6 6 6 6 6 6 6 6 7 7 7 7 8 8 8 8 8 9 9 9
3 2 2 3 3 3 3 3 2 1 1 1 1 3 4 4 4 4 4 5 5 6 6 6 6 6 6 6 6 6 6 6 6 7 7 7 7 7 8 8 8 8 9 9
3 2 1 2 3 4 3 3 2 1 1 0 1 3 5 4 4 4 4 5 5 5 5 5 5 6 6 6 6 5 5 6 6 6 6 6 7 7 7 8 8 8 8 9
3 1 1 2 2 2 2 2 2 1 1 1 1 3 5 4 4 4 4 5 5 5 5 5 5 5 5 5 5 5 5 5 6 6 6 6 6 7 7 7 8 8 8 8
4 1 1 3 3 1 1 1 1 1 1 1 2 3 4 4 4 4 4 5 5 5 5 5 5 5 5 5 5 5 5 5 5 5 6 6 6 6 7 7 7 8 8 8
3 1 1 2 2 2 2 2 2 1 1 1 2 3 4 4 3 3 4 4 4 4 4 4 4 4 4 4 4 5 5 5 5 5 5 6 6 6 6 7 7 7 8 8
2 1 1 1 2 2 2 2 2 2 2 2 2 3 4 4 3 3 3 3 3 4 4 4 4 4 4 4 4 4 4 4 4 5 5 5 5 6 6 6 7 7 8 8
1 1 1 1 1 1 1 2 2 2 2 2 2 3 3 2 2 3 3 3 3 3 3 3 3 3 3 4 4 4 4 4 4 4 4 5 5 5 6 6 6 7 7 7
1 1 1 0 -0 0 2 2 2 2 3 2 2 2 2 2 3 3 3 3 3 3 3 3 3 3 3 3 3 3 4 4 4 4 4 4 5 5 6 6 6 7 7 7
1 1 1 0 -0 0 1 2 2 1 1 2 2 2 2 2 2 2 3 3 3 2 2 3 3 3 3 3 3 3 3 4 4 4 4 4 4 5 5 5 6 6 7 7
1 0 1 0 -0 0 2 2 2 2 1 2 1 1 1 1 -0 1 3 2 2 2 2 2 2 2 2 3 3 3 3 3 3 3 4 4 4 4 5 5 6 6 6 7
-1 -0 0 0 0 1 1 2 2 1 1 2 2 1 1 0 1 2 2 2 2 2 2 2 2 2 2 2 2 2 2 2 3 3 3 3 4 4 5 5 5 6 6 6
-1 -1 -1 -1 -0 0 1 1 1 1 2 2 2 2 2 2 2 2 2 1 1 1 1 1 1 1 1 1 1 2 2 2 2 2 3 3 3 4 4 5 5 5 6 6
-0 0 -0 -0 1 1 2 2 2 2 2 2 2 2 1 1 1 1 1 1 1 1 1 0 0 1 1 1 1 1 1 2 2 2 2 3 3 3 4 4 5 5 5 5
-1 -1 -1 -1 -1 0 1 2 2 2 2 2 1 1 1 0 0 0 0 0 0 0 -0 -0 -0 -0 0 0 1 1 1 1 1 2 2 2 2 3 3 4 4 4 5 5
-1 -1 -1 -1 -1 -0 1 1 1 1 1 1 1 0 0 -0 -0 -0 -1 -1 -1 -1 -1 -1 -1 -1 -1 -0 -0 0 0 0 1 1 1 2 2 2 3 3 4 4 5 5
-2 -1 -1 -1 -0 -1 -0 1 1 1 0 0 -0 -0 -0 -1 -1 -1 -1 -1 -1 -1 -1 -1 -1 -1 -1 -1 -1 -0 -0 -0 -0 0 1 1 1 2 2 3 3 4 4 5
Wind_Speed
1 1 5 8 9 8 5 7 12 13 10 9 14 20 21 17 12 12 12 11 10 11 11 8 6 5 4 4 5 7 6 7 6 5 5 6 7 7 8 9 12 14 14 14
2 5 9 7 6 7 8 11 12 12 6 9 14 19 18 14 10 10 11 10 10 9 8 8 6 4 3 5 5 7 7 7 8 7 6 6 6 7 8 8 11 14 15 15
6 6 4 5 6 7 9 10 10 11 11 7 9 11 8 8 7 8 8 8 8 8 8 8 6 5 4 5 6 7 6 6 7 7 5 4 4 4 6 8 9 12 14 15
6 6 5 6 7 7 9 8 9 9 8 6 3 8 10 8 9 8 7 6 6 7 7 6 6 5 5 6 6 6 6 6 6 6 6 6 6 7 7 7 8 11 14 15
6 4 4 7 7 6 7 6 7 8 6 6 4 6 10 6 8 9 7 7 6 6 6 6 6 6 6 5 5 6 5 5 6 7 8 7 7 7 6 7 8 9 11 13
8 5 4 5 4 4 3 5 6 3 1 5 6 5 8 5 7 8 7 6 6 6 6 6 5 5 5 5 5 5 5 6 6 7 8 8 8 8 8 9 9 9 8 10
6 6 4 2 2 2 3 4 5 6 3 6 4 5 9 8 7 8 8 7 6 6 5 6 6 6 6 6 6 6 6 7 7 7 8 9 10 10 12 11 11 10 9 9
4 7 4 3 5 4 2 6 4 4 5 6 5 7 8 7 7 6 5 5 6 6 5 6 6 7 7 7 6 6 7 7 7 7 8 9 9 8 9 10 10 11 10 10
5 7 5 4 3 5 3 4 5 4 4 6 7 7 8 6 6 6 6 7 7 8 7 7 7 7 7 7 7 6 7 8 7 7 7 8 8 8 8 9 10 9 9 9
6 7 6 5 2 3 5 5 3 2 4 6 7 7 6 7 6 7 7 8 9 9 9 8 7 7 7 7 7 6 7 7 7 6 5 6 7 8 8 8 9 10 10 10
4 5 6 3 5 7 4 3 4 4 4 5 7 8 5 7 6 7 8 9 9 9 10 9 8 8 7 6 6 6 7 7 6 5 5 5 6 7 7 8 10 10 9 10
5 4 7 9 8 5 7 8 7 5 7 6 7 11 5 6 6 7 10 10 10 10 10 9 8 8 8 7 6 6 6 6 6 5 5 5 5 5 6 8 9 9 9 10
5 4 4 6 4 1 4 5 7 6 5 8 10 12 4 6 10 10 10 11 10 10 10 9 8 7 7 8 7 6 6 6 6 5 5 5 4 4 6 7 8 9 10 9
5 7 9 12 9 5 6 7 7 7 8 11 16 21 19 16 16 15 13 12 10 9 9 9 8 8 8 8 7 6 6 6 6 6 5 5 5 5 6 6 6 7 8 9
5 8 11 16 15 10 14 16 13 15 16 16 20 22 24 20 16 13 11 11 10 9 9 9 8 8 8 8 7 7 6 6 6 6 6 6 5 5 5 5 6 6 8 9
6 7 8 13 13 14 20 22 21 21 19 22 24 26 23 19 13 12 11 10 9 9 9 9 9 9 8 8 7 7 7 7 6 6 6 6 5 5 5 5 6 6 7 8
6 6 6 10 7 7 15 16 18 12 12 12 19 21 16 12 12 11 10 9 8 9 9 9 9 8 8 8 7 7 7 7 6 6 6 5 5 5 5 6 5 6 7 7
10 9 6 6 3 14 11 5 9 13 16 16 15 13 10 11 11 9 6 6 7 8 9 9 9 9 8 7 7 7 7 6 6 5 5 6 6 5 5 5 5 5 6 7
13 10 7 5 8 12 10 6 6 8 11 11 12 11 9 7 5 6 4 4 6 7 8 8 8 8 8 8 8 7 7 7 6 6 6 5 5 5 4 5 6 6 5 6
10 10 9 7 7 9 8 4 3 1 8 7 6 7 6 2 3 7 6 6 7 8 7 7 7 7 8 8 7 7 7 6 6 7 7 6 5 5 5 6 6 5 4 5
6 8 12 13 11 10 8 4 3 4 8 4 4 5 5 5 8 7 7 7 7 7 8 7 7 7 8 8 7 7 6 6 7 7 6 5 5 5 5 5 5 4 4 4
10 8 9 8 10 11 5 5 7 8 4 4 5 6 6 8 8 8 7 8 8 8 8 7 7 8 8 7 7 8 7 7 7 6 6 6 5 5 4 4 4 3 4 4
11 11 7 10 11 6 5 8 6 4 6 6 6 7 7 7 8 8 8 8 8 8 8 7 7 9 9 7 7 8 8 7 7 6 6 6 5 5 4 4 4 3 4 4
6 5 6 8 10 9 7 7 6 6 7 7 7 7 7 8 8 9 9 9 8 8 8 7 8 9 9 9 8 8 8 7 6 6 6 5 5 5 4 4 4 3 4 4
8 6 6 10 9 7 8 8 8 8 7 7 7 7 8 9 9 9 9 9 9 9 8 8 8 9 10 9 9 8 7 6 6 6 6 5 4 4 4 4 4 4 5 6
7 8 8 11 8 7 7 6 7 8 8 9 9 9 8 8 9 9 9 9 8 8 8 8 9 10 10 9 10 8 7 6 6 6 6 5 4 4 4 4 4 5 5 5
Wind_Direction
133 126 231 230 218 230 253 262 275 277 283 294 279 282 286 286 279 274 276 273 270 270 270 273 271 267 267 278 271 250 237 245 226 214 214 215 215 215 209 205 198 193 189 186
11 252 242 235 237 244 257 273 279 289 294 298 285 283 280 276 267 263 268 268 268 275 283 282 280 271 263 260 272 259 239 238 225 217 214 212 214 217 209 206 201 196 192 189
236 253 257 250 255 260 263 256 266 282 309 294 301 294 278 282 281 286 277 264 259 264 272 279 282 268 269 273 272 269 255 252 236 222 220 221 214 211 206 207 203 200 196 194
261 261 259 266 264 247 273 253 260 283 310 295 336 298 285 284 299 298 296 286 272 277 276 274 276 272 265 269 273 264 256 255 246 223 214 214 215 221 219 208 208 203 197 194
268 264 268 264 256 227 247 273 276 280 271 284 258 244 283 299 289 293 293 288 281 281 285 285 275 264 265 266 272 269 264 259 253 231 217 220 225 227 222 207 204 207 202 197
256 262 244 239 254 233 269 340 324 354 54 276 242 222 281 274 268 286 294 288 278 280 288 300 301 291 287 290 286 279 275 268 265 244 227 221 231 228 219 209 205 205 204 201
304 286 259 214 293 334 67 46 348 344 345 256 270 248 256 266 270 268 277 285 284 285 299 310 316 310 305 297 292 294 284 279 270 251 236 227 228 226 213 205 206 204 205 205
295 292 261 215 200 215 195 149 181 257 263 286 294 252 257 272 290 297 296 303 312 311 303 299 298 296 296 295 287 292 287 279 272 255 243 230 221 224 215 207 204 206 207 207
223 264 284 255 216 167 185 202 194 196 273 274 266 274 294 296 307 317 325 335 327 310 304 301 300 296 293 297 292 284 284 277 274 265 254 233 219 225 223 212 208 208 208 205
195 261 276 294 294 227 190 170 115 166 265 271 276 268 261 284 294 310 319 320 311 312 309 302 300 295 291 290 290 295 285 281 279 275 267 254 227 223 222 216 214 212 208 202
175 229 288 300 215 220 190 179 181 195 213 237 272 267 230 245 270 295 305 309 309 311 307 299 296 297 294 295 298 301 299 288 290 281 272 260 245 228 222 222 220 208 203 201
197 202 259 252 246 227 205 203 183 210 244 232 259 271 252 250 274 295 304 307 308 306 303 297 297 301 305 299 296 292 297 296 286 280 272 261 256 240 228 228 225 211 204 203
178 188 286 312 312 264 235 224 209 218 237 241 252 267 273 291 301 302 299 300 302 302 306 303 301 303 304 299 293 289 292 294 291 283 273 262 263 260 245 235 229 216 209 210
193 201 217 241 247 216 242 247 227 218 243 254 250 264 280 288 292 295 294 291 291 293 300 301 300 301 303 303 299 295 293 294 295 286 278 266 260 259 259 247 239 229 214 214
194 237 240 252 259 255 255 257 243 236 237 247 262 267 274 280 283 284 285 288 290 295 302 303 301 300 302 305 308 304 297 295 295 290 278 273 271 264 267 259 243 237 221 217
201 243 251 262 253 252 263 262 255 251 248 249 261 269 271 277 280 282 282 282 286 294 301 304 304 303 304 304 304 305 303 296 293 285 272 269 275 276 269 268 258 236 218 216
209 222 240 264 268 275 262 251 246 240 230 235 251 260 273 279 279 279 278 280 284 293 301 305 303 294 294 296 296 298 295 295 291 281 275 266 267 273 275 276 272 241 223 213
217 225 238 263 264 252 252 231 230 243 249 243 248 261 267 268 277 277 269 275 289 298 302 302 302 300 297 295 298 297 299 297 292 290 284 275 268 271 275 274 273 258 233 211
211 214 228 234 249 266 277 255 215 225 256 246 247 259 268 278 301 294 282 285 281 288 291 293 293 292 296 300 302 304 307 303 302 299 295 288 273 268 274 273 270 262 243 216
203 207 224 229 240 253 256 250 220 201 270 258 231 249 264 273 287 279 292 296 296 299 301 302 306 307 306 304 306 306 304 303 304 300 296 290 283 265 261 263 263 259 234 223
186 208 225 234 244 260 253 235 141 210 255 254 219 236 243 227 235 261 283 289 290 294 298 305 308 308 302 302 307 307 305 299 297 300 297 291 280 272 262 260 259 255 235 228
188 198 211 215 234 251 218 165 197 230 249 241 236 237 242 247 258 269 276 284 293 300 304 307 309 306 305 305 304 301 297 295 298 298 297 296 290 286 284 264 261 251 228 223
203 201 200 207 228 244 191 205 229 229 239 244 242 247 248 258 265 271 274 280 287 291 294 297 299 303 304 304 298 292 293 299 302 299 297 296 295 288 283 265 255 245 222 212
237 208 206 240 254 254 247 245 251 243 241 250 250 254 252 254 262 268 274 280 284 287 290 292 297 299 301 302 298 290 293 300 301 296 292 291 286 287 285 278 252 235 221 213
219 194 218 247 260 273 260 246 250 253 252 254 256 252 250 255 263 265 272 275 279 285 288 290 290 290 293 298 298 295 292 296 296 290 286 290 285 277 280 277 264 243 234 218
212 207 219 244 237 230 246 244 244 248 255 257 261 265 260 255 262 267 270 272 276 282 287 290 291 291 292 295 296 296 290 285 285 288 287 285 287 283 282 280 287 266 240 224
Height
1491 1495 1494 1491 1489 1488 1487 1487 1485 1477 1470 1470 1463 1454 1446 1441 1439 1436 1433 1430 1428 1426 1424 1424 1424 1423 1422 1421 1420 1420 1419 1420 1421 1422 1423 1424 1425 1427 1429 1431 1434 1437 1440 1443
1494 1493 1486 1484 1484 1485 1485 1485 1481 1472 1467 1466 1459 1449 1440 1435 1433 1431 1428 1425 1424 1421 1420 1419 1418 1417 1417 1416 1415 1414 1414 1414 1415 1416 1418 1419 1419 1420 1422 1425 1427 1430 1433 1437
1491 1486 1481 1481 1482 1482 1481 1481 1477 1473 1468 1465 1462 1449 1439 1432 1429 1426 1424 1421 1420 1419 1416 1415 1414 1413 1412 1411 1410 1409 1408 1408 1409 1410 1412 1413 1414 1414 1416 1418 1420 1423 1427 1430
1487 1481 1479 1479 1479 1479 1479 1472 1471 1470 1474 1473 1467 1461 1440 1433 1428 1423 1420 1418 1416 1415 1413 1411 1410 1409 1408 1407 1406 1404 1404 1404 1404 1404 1406 1406 1406 1406 1408 1411 1414 1417 1420 1424
1485 1479 1478 1477 1474 1473 1473 1469 1469 1468 1471 1474 1467 1469 1443 1435 1429 1422 1418 1415 1413 1412 1410 1408 1407 1406 1404 1403 1401 1400 1399 1398 1398 1399 1399 1400 1400 1401 1403 1406 1408 1411 1414 1417
1482 1477 1476 1473 1470 1470 1470 1471 1470 1473 1475 1478 1465 1466 1447 1437 1426 1419 1415 1413 1411 1410 1408 1405 1403 1402 1400 1399 1397 1395 1394 1393 1393 1393 1393 1393 1394 1395 1397 1399 1402 1404 1407 1411
1483 1476 1471 1470 1471 1470 1472 1480 1487 1486 1489 1476 1458 1456 1442 1427 1421 1418 1414 1411 1409 1407 1406 1403 1400 1398 1396 1394 1392 1390 1389 1387 1387 1387 1387 1387 1388 1389 1390 1392 1396 1398 1401 1404
1489 1482 1471 1468 1469 1472 1473 1478 1488 1490 1486 1470 1457 1449 1433 1422 1418 1414 1412 1409 1407 1405 1404 1401 1399 1397 1394 1391 1389 1387 1385 1383 1382 1382 1382 1383 1384 1384 1385 1387 1389 1392 1395 1398
1488 1481 1469 1465 1465 1467 1472 1476 1475 1482 1482 1478 1459 1446 1431 1419 1415 1413 1410 1408 1406 1404 1402 1399 1397 1394 1391 1388 1386 1383 1381 1379 1378 1376 1376 1376 1378 1378 1380 1382 1384 1387 1390 1393
1479 1481 1471 1466 1465 1463 1466 1469 1479 1481 1482 1473 1457 1447 1434 1421 1416 1412 1409 1407 1404 1402 1399 1396 1394 1391 1388 1385 1382 1379 1377 1375 1372 1371 1371 1371 1372 1373 1374 1377 1379 1381 1384 1387
1476 1481 1474 1470 1466 1465 1466 1469 1469 1475 1476 1473 1461 1437 1419 1418 1413 1411 1408 1405 1402 1399 1397 1394 1391 1388 1385 1381 1378 1376 1373 1371 1369 1368 1367 1367 1368 1369 1370 1372 1373 1376 1379 1382
1473 1477 1477 1469 1459 1457 1459 1460 1464 1471 1470 1468 1458 1431 1412 1412 1409 1408 1406 1403 1400 1397 1394 1391 1388 1384 1381 1378 1375 1372 1369 1367 1366 1364 1364 1363 1363 1364 1365 1366 1368 1371 1373 1377
1470 1475 1476 1465 1464 1460 1459 1457 1457 1459 1461 1458 1452 1428 1409 1409 1407 1405 1403 1400 1397 1394 1391 1387 1384 1380 1377 1374 1371 1368 1366 1363 1362 1361 1360 1360 1359 1360 1361 1362 1363 1366 1369 1372
1463 1468 1467 1460 1453 1456 1457 1454 1453 1456 1454 1446 1435 1420 1409 1407 1405 1402 1400 1396 1393 1390 1387 1383 1380 1377 1374 1371 1368 1365 1363 1361 1360 1358 1358 1356 1356 1356 1356 1357 1359 1361 1363 1366
1458 1459 1457 1450 1446 1448 1446 1444 1444 1444 1439 1437 1421 1415 1405 1402 1401 1398 1395 1392 1389 1386 1383 1379 1376 1373 1370 1367 1364 1362 1360 1358 1357 1355 1354 1353 1353 1353 1353 1353 1355 1357 1359 1362
1453 1452 1451 1445 1440 1442 1437 1430 1429 1427 1425 1421 1415 1407 1399 1397 1396 1393 1390 1387 1385 1382 1379 1375 1373 1370 1367 1364 1361 1359 1356 1355 1353 1352 1350 1350 1350 1349 1350 1350 1351 1353 1355 1358
1448 1448 1447 1440 1437 1438 1429 1415 1414 1414 1411 1411 1407 1398 1393 1393 1390 1388 1385 1383 1381 1378 1375 1372 1370 1367 1364 1361 1358 1355 1353 1351 1350 1348 1347 1347 1346 1346 1345 1346 1347 1348 1350 1353
1440 1442 1442 1438 1441 1434 1409 1404 1404 1403 1400 1399 1395 1392 1390 1389 1386 1383 1382 1380 1377 1375 1372 1368 1365 1362 1360 1358 1355 1352 1350 1348 1346 1344 1343 1343 1342 1342 1342 1342 1343 1343 1345 1348
1429 1434 1435 1435 1433 1419 1406 1400 1399 1400 1395 1390 1389 1387 1386 1384 1382 1380 1378 1377 1374 1372 1369 1365 1362 1359 1356 1354 1351 1348 1345 1344 1342 1340 1339 1338 1338 1338 1338 1339 1339 1340 1342 1344
1423 1426 1429 1427 1426 1416 1400 1394 1392 1395 1395 1385 1385 1384 1383 1383 1385 1379 1376 1374 1371 1369 1366 1363 1359 1356 1353 1350 1348 1345 1342 1339 1337 1336 1335 1335 1335 1335 1335 1335 1336 1337 1338 1340
1422 1423 1421 1418 1416 1404 1393 1391 1392 1399 1392 1382 1381 1381 1381 1380 1379 1376 1373 1371 1368 1366 1363 1360 1357 1353 1351 1348 1344 1341 1339 1336 1335 1333 1332 1332 1332 1331 1331 1332 1333 1333 1334 1336
1411 1415 1415 1414 1411 1400 1386 1388 1389 1385 1380 1379 1378 1377 1377 1375 1373 1371 1369 1367 1364 1362 1359 1356 1353 1350 1347 1345 1341 1338 1336 1334 1332 1330 1329 1328 1328 1327 1328 1328 1329 1330 1332 1333
1399 1397 1397 1397 1390 1381 1380 1379 1378 1378 1377 1375 1374 1373 1373 1371 1369 1367 1365 1362 1360 1357 1355 1352 1349 1346 1343 1341 1338 1335 1332 1331 1329 1327 1326 1325 1325 1324 1325 1325 1326 1327 1329 1330
1390 1387 1390 1388 1381 1377 1376 1374 1374 1374 1373 1371 1370 1369 1368 1366 1364 1362 1360 1358 1355 1353 1350 1348 1345 1341 1339 1337 1334 1332 1329 1327 1325 1323 1322 1322 1322 1321 1321 1322 1323 1323 1325 1327
1381 1382 1382 1380 1375 1373 1370 1370 1369 1369 1368 1367 1365 1364 1363 1361 1359 1357 1355 1353 1350 1348 1345 1343 1340 1336 1334 1331 1329 1328 1326 1324 1322 1320 1319 1318 1318 1318 1318 1318 1319 1320 1322 1324
1373 1375 1376 1371 1368 1368 1365 1364 1364 1363 1362 1361 1360 1358 1357 1356 1354 1352 1350 1347 1345 1342 1340 1337 1334 1331 1328 1326 1324 1322 1321 1320 1318 1316 1314 1314 1314 1314 1314 1314 1316 1317 1319 1321